Terminal Aerodrome Forecast
Issued by NWS

Home | Current Version | Previous Version | Text Only | Print | Product List | Glossary On
Versions: 1 2 3 4 5 6 7 8 9 10 11 12 13 14 15 16 17 18 19 20 21 22 23 24 25 26 27 28 29
000
FTUS45 KSLC 111120
TAFLGU
TAF
KLGU 111120Z 1112/1212 07005KT 1/2SM FZFG VV002
     FM111700 VRB03KT 2SM BR BKN005
     FM120100 35005KT 1/2SM FG VV003=

USA.gov is the U.S. government's official web portal to all federal, state and local government web resources and services.